Вернуться в каталог

STARLINK-35336

АктивенСвязьVLEO
NORAD 66006·PAYLOAD·🇺🇸 United States

Запущен Oct 16, 2025 с Cape Canaveral Space Force Station

Loading…

Ближайшие Пролёты (ближайшие 24 часа)

TLE

СвежийSource: CelesTrak SupGP

Эпоха: Sep 14, 2026, 22:39 UTC

1 66006C 25232B   26257.94423611  .00042835  00000+0  12661-2 0  2570
2 66006  53.1591 301.5809 0001133  80.6644  49.8794 15.34356941    19

Отслеживайте STARLINK-35336 в реальном времени с AllMySat

Download on the App Store